[[{"header":{"parameterUnit":"m.s-1","parameterCategory":2,"la1":30.2992,"la2":30.254,"lo1":-89.0895,"lo2":-89.0443,"dy":0.0025,"dx":0.0025,"nx":19,"ny":19,"refTime":"2026-05-18T09:00:00:Z","depth":"0","parameterNumber":2,"parameterNumberName":"U-component_of_CURRENTS"},"data":[0,0,0,0.2223,0.2225,0.2299,0.2299,0.2407,0.2408,0,0,0,0,0,0,0,0,0,0,0,0.2191,0.2192,0.2223,0.2225,0.2299,0.2299,0.2407,0.2408,0,0,0,0,0,0,0,0,0,0,0,0.2191,0.2192,0.2192,0.2225,0.2299,0.2299,0.2407,0.2346,0,0,0,0,0,0,0,0,0,0,0.2271,0.224,0.2191,0.2192,0.2226,0.2299,0.2299,0.2342,0.2349,0.238,0,0.2395,0,0.2412,0.2417,0.2417,0,0,0,0.2217,0.2234,0.226,0.2193,0.2227,0.2299,0.2263,0.2346,0.2354,0.2389,0.2397,0.2401,0.2414,0.2417,0.2418,0.2586,0.2587,0,0,0.2213,0.22,0.2255,0.2265,0.2252,0.2261,0.2266,0.2351,0.2358,0.2397,0.2403,0.2416,0.2418,0.2419,0.2585,0.2587,0,0,0,0.2206,0.2197,0.222,0.2261,0.2278,0.2263,0.2269,0.2354,0.2364,0.2405,0.2417,0.2419,0.242,0.2584,0.2586,0.257,0,0,0,0.2204,0.2194,0.2218,0.2211,0.2276,0.2315,0.227,0.2358,0.2368,0.2416,0.2419,0.2422,0.2583,0.2585,0.2569,0.2575,0,0,0,0.2187,0.2192,0.2203,0.221,0.2247,0.2314,0.2328,0.236,0.2376,0.2417,0.2422,0.2583,0.2585,0.2567,0.2573,0.2595,0,0,0,0.2167,0.221,0.2203,0.2263,0.2247,0.2331,0.2328,0.2386,0.2424,0.242,0.2584,0.2586,0.2566,0.2571,0.2593,0.2571,0.2577,0,0,0.2215,0.2215,0.2254,0.2251,0.2331,0.2319,0.2399,0.2437,0.2469,0.2552,0.2556,0.2569,0.2573,0.2594,0.2697,0.2698,0,0,0,0.2267,0.229,0.2316,0.2358,0.2404,0.243,0.2465,0.2484,0.2549,0.2504,0.2618,0.2623,0.2635,0.2621,0.2623,0.2417,0.2596,0.2596,0.2595,0.2304,0.2335,0.2395,0.2434,0.2476,0.2515,0.2547,0.2586,0.2597,0.263,0.2645,0.2703,0.2689,0.269,0.2479,0.268,0.268,0.268,0.268,0.238,0.2416,0.2439,0.25,0.252,0.257,0.2626,0.2631,0.2696,0.2688,0.27,0.265,0.2691,0.2465,0.268,0.268,0.268,0.268,0.268,0.2397,0.2419,0.2444,0.2511,0.2548,0.2586,0.2627,0.2661,0.2703,0.2724,0.2716,0.2716,0.2485,0.2723,0.2723,0.2724,0.2724,0.2724,0.2724,0.2403,0.2434,0.2469,0.2523,0.2542,0.2573,0.2625,0.2658,0.2703,0.2725,0.2725,0.2492,0.2717,0.2678,0.2726,0.2726,0.2725,0.2725,0.2725,0.2457,0.2445,0.2508,0.2527,0.2554,0.2522,0.2586,0.2617,0.2676,0.2693,0.2479,0.2731,0.2737,0.2736,0.27,0.2751,0.2751,0.2751,0.2751,0.2476,0.2482,0.2538,0.2549,0.2544,0.2501,0.2442,0.2471,0.2448,0.2398,0.2371,0.2309,0.2318,0.2295,0.2304,0.2258,0.2195,0.2194,0.2193,0.2524,0.2538,0.2564,0.2552,0.2523,0.2441,0.2301,0.2239,0.2229,0.2148,0.2084,0.2108,0.1994,0.2024,0.1973,0.2002,0.1923,0,0]},{"header":{"parameterUnit":"m.s-1","parameterCategory":2,"la1":30.2992,"la2":30.254,"lo1":-89.0895,"lo2":-89.0443,"dy":0.0025,"dx":0.0025,"nx":19,"ny":19,"refTime":"2026-05-18T09:00:00:Z","depth":"0","parameterNumber":3,"parameterNumberName":"V-component_of_CURRENTS"},"data":[0,0,0,0.0123,0.0123,0.0127,0.0127,0.0141,0.0141,0,0,0,0,0,0,0,0,0,0,0,0.0121,0.0121,0.0123,0.0123,0.0127,0.0127,0.0141,0.0141,0,0,0,0,0,0,0,0,0,0,0,0.0121,0.0121,0.0121,0.0123,0.0127,0.0127,0.0141,0.0134,0,0,0,0,0,0,0,0,0,0,0.0129,0.0112,0.0121,0.0121,0.0123,0.0127,0.0127,0.0134,0.0135,0.0143,0,0.0147,0,0.0148,0.0142,0.0143,0,0,0,0.0118,0.0111,0.0129,0.0121,0.0124,0.0127,0.0124,0.0134,0.0135,0.0144,0.0147,0.0148,0.0148,0.0143,0.0143,0.0227,0.0227,0,0,0.0117,0.0105,0.0129,0.013,0.013,0.0124,0.0124,0.0134,0.0128,0.0147,0.0148,0.0148,0.0143,0.0143,0.0226,0.0227,0,0,0,0.0121,0.0104,0.0121,0.0129,0.0132,0.0124,0.0124,0.0127,0.0138,0.0148,0.0149,0.0143,0.0143,0.0225,0.0226,0.0268,0,0,0,0.012,0.0107,0.0121,0.0111,0.0131,0.0125,0.0117,0.0137,0.0138,0.0148,0.0143,0.0143,0.0224,0.0226,0.0265,0.0308,0,0,0,0.012,0.0106,0.0112,0.0111,0.0117,0.0125,0.0134,0.0137,0.0139,0.0143,0.0144,0.0224,0.0226,0.0262,0.0303,0.0416,0,0,0,0.0099,0.0095,0.0112,0.0105,0.0117,0.0141,0.0134,0.0141,0.0145,0.0143,0.0225,0.0226,0.0262,0.03,0.0411,0.0455,0.0479,0,0,0.0082,0.0092,0.009,0.0106,0.0134,0.0139,0.0176,0.0176,0.018,0.0218,0.022,0.0266,0.0303,0.0415,0.0556,0.0577,0,0,0,0.0077,0.0091,0.0097,0.0117,0.0136,0.0188,0.0188,0.0217,0.0264,0.0192,0.029,0.0314,0.0382,0.04,0.0417,0.0435,0.0234,0.0234,0.0234,0.0071,0.0088,0.0109,0.0149,0.017,0.0223,0.0277,0.0326,0.0296,0.0341,0.0364,0.0502,0.052,0.0533,0.0551,0.037,0.037,0.037,0.0371,0.01,0.0124,0.0153,0.0182,0.0237,0.0278,0.0375,0.0393,0.0513,0.0447,0.0512,0.0463,0.0554,0.0566,0.0374,0.0373,0.0373,0.0372,0.0372,0.0134,0.0145,0.0163,0.0217,0.028,0.0332,0.0465,0.0515,0.0573,0.0636,0.0689,0.0688,0.0689,0.067,0.0671,0.0672,0.0672,0.0673,0.0673,0.0157,0.0176,0.0217,0.0263,0.0302,0.0391,0.053,0.0634,0.0753,0.0775,0.0775,0.0752,0.0595,0.0573,0.0684,0.0682,0.068,0.0679,0.0679,0.0203,0.0204,0.0267,0.0306,0.041,0.0537,0.064,0.0845,0.0947,0.1021,0.0975,0.0868,0.0877,0.0862,0.0848,0.1024,0.1024,0.1024,0.1024,0.0227,0.0235,0.0322,0.0402,0.0513,0.0617,0.0849,0.1007,0.1121,0.1163,0.1127,0.104,0.1025,0.1037,0.1019,0.1004,0.1217,0.1217,0.1217,0.0264,0.0283,0.0358,0.0436,0.056,0.0727,0.0937,0.1131,0.1253,0.1225,0.1153,0.1144,0.1008,0.0983,0.0986,0.0958,0.0928,0,0]}],[{"header":{"parameterUnit":"m.s-1","parameterCategory":2,"la1":30.2992,"la2":30.254,"lo1":-89.0895,"lo2":-89.0443,"dy":0.0025,"dx":0.0025,"nx":19,"ny":19,"refTime":"2026-05-18T09:00:00:Z","depth":"2","parameterNumber":2,"parameterNumberName":"U-component_of_CURRENTS"},"data":[0,0,0,0.1587,0.1589,0.1667,0.1668,0.1804,0.1805,0,0,0,0,0,0,0,0,0,0,0,0.1571,0.1571,0.1587,0.1589,0.1667,0.1668,0.1803,0.1805,0,0,0,0,0,0,0,0,0,0,0,0.157,0.1571,0.1572,0.1589,0.1667,0.1668,0.1803,0.1737,0,0,0,0,0,0,0,0,0,0,0.1658,0.1663,0.1571,0.1572,0.159,0.1667,0.1668,0.1734,0.1741,0.1775,0,0.179,0,0.1794,0.1814,0.1814,0,0,0,0.1598,0.1657,0.1645,0.1572,0.159,0.1667,0.1635,0.1738,0.1747,0.1785,0.1792,0.1797,0.1796,0.1815,0.1815,0.2009,0.201,0,0,0.1594,0.1618,0.1639,0.1651,0.1616,0.1632,0.1637,0.1743,0.1775,0.1793,0.18,0.1798,0.1816,0.1817,0.2008,0.2009,0,0,0,0.1575,0.1616,0.1602,0.1646,0.1654,0.1634,0.164,0.1771,0.1757,0.1801,0.18,0.1816,0.1818,0.2006,0.2008,0.2087,0,0,0,0.1573,0.1603,0.16,0.1619,0.1651,0.1716,0.1666,0.175,0.1761,0.1799,0.1816,0.1819,0.2005,0.2007,0.2082,0.2115,0,0,0,0.1566,0.1603,0.1605,0.162,0.1644,0.1713,0.1708,0.1752,0.176,0.1814,0.182,0.2004,0.2007,0.2078,0.2108,0.219,0,0,0,0.1595,0.1624,0.1607,0.1653,0.1643,0.1701,0.1707,0.1781,0.1833,0.1817,0.2005,0.2008,0.2077,0.2103,0.2185,0.2082,0.2096,0,0,0.1639,0.1631,0.1654,0.1638,0.1699,0.1691,0.1792,0.1861,0.1885,0.1972,0.1976,0.2084,0.2107,0.2189,0.2234,0.2243,0,0,0,0.1671,0.1694,0.171,0.1746,0.1766,0.1836,0.1879,0.1916,0.203,0.1925,0.2116,0.2128,0.2177,0.2106,0.2114,0.2021,0.202,0.202,0.202,0.1762,0.1759,0.1818,0.1835,0.1885,0.1952,0.2024,0.2092,0.209,0.2166,0.2216,0.2364,0.229,0.2294,0.2244,0.2244,0.2245,0.2245,0.2245,0.183,0.1862,0.1896,0.1957,0.2014,0.2105,0.2194,0.2224,0.2359,0.2318,0.2362,0.2221,0.2308,0.2252,0.2251,0.225,0.2249,0.2249,0.2248,0.189,0.1902,0.195,0.2037,0.2146,0.2212,0.2309,0.2383,0.2448,0.2513,0.2447,0.2444,0.2401,0.2548,0.2549,0.2549,0.255,0.255,0.2551,0.1921,0.1959,0.2029,0.2122,0.2186,0.2283,0.2395,0.2444,0.2514,0.2537,0.2535,0.2466,0.2456,0.242,0.2559,0.2557,0.2556,0.2556,0.2555,0.1962,0.1991,0.2075,0.2141,0.2252,0.2278,0.238,0.2444,0.2537,0.2555,0.2548,0.2546,0.2512,0.2503,0.2468,0.2612,0.2612,0.2612,0.2612,0.1981,0.2002,0.21,0.2169,0.2235,0.2268,0.2226,0.2094,0.2179,0.2066,0.2087,0.1944,0.1957,0.1883,0.1887,0.1836,0.1815,0.1812,0.181,0.1989,0.2021,0.2084,0.216,0.2214,0.2213,0.2066,0.1653,0.1397,0.1762,0.1771,0.2593,0.2441,0.2438,0.2367,0.2358,0.2292,0,0]},{"header":{"parameterUnit":"m.s-1","parameterCategory":2,"la1":30.2992,"la2":30.254,"lo1":-89.0895,"lo2":-89.0443,"dy":0.0025,"dx":0.0025,"nx":19,"ny":19,"refTime":"2026-05-18T09:00:00:Z","depth":"2","parameterNumber":3,"parameterNumberName":"V-component_of_CURRENTS"},"data":[0,0,0,-0.0479,-0.048,-0.056,-0.056,-0.066,-0.0661,0,0,0,0,0,0,0,0,0,0,0,-0.0454,-0.0454,-0.0479,-0.0481,-0.056,-0.056,-0.066,-0.0661,0,0,0,0,0,0,0,0,0,0,0,-0.0454,-0.0454,-0.0455,-0.0481,-0.056,-0.056,-0.066,-0.0603,0,0,0,0,0,0,0,0,0,0,-0.0527,-0.0518,-0.0454,-0.0455,-0.0481,-0.0559,-0.056,-0.06,-0.0607,-0.0621,0,-0.0629,0,-0.0642,-0.0667,-0.0667,0,0,0,-0.0491,-0.0514,-0.0514,-0.0455,-0.0482,-0.0559,-0.0527,-0.0604,-0.0611,-0.0629,-0.063,-0.0634,-0.0643,-0.0667,-0.0668,-0.0736,-0.0736,0,0,-0.0487,-0.0491,-0.0509,-0.0518,-0.0497,-0.0524,-0.0529,-0.0608,-0.0626,-0.0631,-0.0637,-0.0645,-0.0668,-0.0668,-0.0736,-0.0736,0,0,0,-0.0467,-0.0488,-0.0487,-0.0514,-0.0526,-0.0526,-0.0532,-0.0623,-0.0616,-0.0638,-0.0646,-0.0668,-0.0669,-0.0736,-0.0736,-0.0709,0,0,0,-0.0465,-0.0475,-0.0485,-0.0492,-0.0524,-0.058,-0.0545,-0.0611,-0.062,-0.0646,-0.0668,-0.067,-0.0736,-0.0736,-0.071,-0.0663,0,0,0,-0.0451,-0.0474,-0.0477,-0.0491,-0.0518,-0.0578,-0.0579,-0.0614,-0.0625,-0.0667,-0.067,-0.0736,-0.0736,-0.071,-0.0665,-0.0548,0,0,0,-0.0461,-0.0477,-0.0477,-0.0502,-0.0517,-0.0551,-0.0579,-0.0634,-0.0672,-0.0669,-0.0736,-0.0736,-0.071,-0.0666,-0.0551,-0.0245,-0.0206,0,0,-0.0482,-0.048,-0.0491,-0.0492,-0.0513,-0.0541,-0.0579,-0.0647,-0.0678,-0.0711,-0.0713,-0.0709,-0.0665,-0.0549,-0.0262,-0.0221,0,0,0,-0.0498,-0.0504,-0.0511,-0.0526,-0.0544,-0.0564,-0.0624,-0.0639,-0.0687,-0.0698,-0.0723,-0.0695,-0.0622,-0.0445,-0.0414,-0.0737,-0.0737,-0.0737,-0.0737,-0.0507,-0.0512,-0.053,-0.0538,-0.0558,-0.0596,-0.0604,-0.0636,-0.0682,-0.0697,-0.0685,-0.0592,-0.0407,-0.0379,-0.0717,-0.0717,-0.0717,-0.0717,-0.0717,-0.051,-0.0514,-0.0529,-0.0556,-0.0565,-0.0601,-0.0598,-0.0621,-0.0581,-0.0658,-0.0589,-0.0441,-0.0343,-0.0715,-0.0715,-0.0715,-0.0715,-0.0716,-0.0716,-0.0499,-0.0504,-0.0528,-0.0548,-0.0578,-0.0601,-0.0533,-0.0551,-0.0536,-0.0493,-0.0246,-0.0243,-0.0513,-0.045,-0.0449,-0.0448,-0.0448,-0.0447,-0.0447,-0.0473,-0.0493,-0.05,-0.0537,-0.0553,-0.0542,-0.0486,-0.0405,-0.0223,-0.0153,-0.015,-0.0499,-0.0508,-0.0496,-0.0436,-0.0438,-0.0439,-0.044,-0.0441,-0.045,-0.045,-0.0452,-0.0464,-0.0468,-0.0339,-0.0305,0.0003,0.0097,0.0251,0.0073,0.0057,0.0105,0.0083,0.011,0.0324,0.0324,0.0324,0.0324,-0.0413,-0.0419,-0.0392,-0.0375,-0.033,-0.0237,0.016,0.046,0.0579,0.0665,0.0649,0.062,0.0585,0.0654,0.0618,0.0652,0.1007,0.1008,0.1008,-0.0371,-0.0371,-0.0336,-0.0325,-0.027,-0.0052,0.0438,0.0872,0.101,0.1019,0.0602,0.0402,0.0315,0.0277,0.034,0.0299,0.0337,0,0]}],[{"header":{"parameterUnit":"m.s-1","parameterCategory":2,"la1":30.2992,"la2":30.254,"lo1":-89.0895,"lo2":-89.0443,"dy":0.0025,"dx":0.0025,"nx":19,"ny":19,"refTime":"2026-05-18T09:00:00:Z","depth":"4","parameterNumber":2,"parameterNumberName":"U-component_of_CURRENTS"},"data":[0,0,0,0.0167,0.0168,0.02,0.0201,0.0311,0.0312,0,0,0,0,0,0,0,0,0,0,0,0.0164,0.0164,0.0167,0.0168,0.02,0.0201,0.0311,0.0312,0,0,0,0,0,0,0,0,0,0,0,0.0164,0.0164,0.0165,0.0168,0.02,0.0201,0.031,0.027,0,0,0,0,0,0,0,0,0,0,0.023,0.0209,0.0164,0.0165,0.0168,0.02,0.0201,0.0267,0.0272,0.0315,0,0.0323,0,0.0318,0.0321,0.0321,0,0,0,0.0171,0.0204,0.0219,0.0165,0.0169,0.02,0.0187,0.0269,0.0275,0.0322,0.0325,0.0328,0.032,0.0321,0.0322,0.0436,0.0437,0,0,0.017,0.0166,0.0214,0.0223,0.0184,0.0186,0.0188,0.0272,0.028,0.0325,0.033,0.0322,0.0322,0.0323,0.0436,0.0436,0,0,0,0.0162,0.0165,0.0176,0.0219,0.0218,0.0187,0.0189,0.0276,0.0282,0.0331,0.0323,0.0323,0.0325,0.0436,0.0436,0.0464,0,0,0,0.0161,0.016,0.0175,0.0173,0.0216,0.0236,0.0191,0.0276,0.0285,0.0322,0.0323,0.0326,0.0435,0.0436,0.0462,0.0489,0,0,0,0.0161,0.016,0.0167,0.0173,0.0185,0.0234,0.0244,0.0277,0.028,0.0321,0.0326,0.0435,0.0436,0.0461,0.0487,0.0577,0,0,0,0.0153,0.0136,0.0167,0.0142,0.0185,0.0207,0.0243,0.0278,0.0313,0.0324,0.0436,0.0436,0.0461,0.0485,0.0574,0.0381,0,0,0,0.0117,0.0132,0.0113,0.014,0.013,0.0202,0.0228,0.0295,0.0338,0.0413,0.0415,0.0463,0.0486,0.0577,0.0421,0,0,0,0,0.009,0.0085,0.0085,0.009,0.0124,0.0196,0.026,0.0309,0.0401,0.0361,0.0469,0.0483,0.054,0.0417,0.044,0.0439,0.0439,0.0439,0.0439,0.0052,0.0053,0.0038,0.0065,0.0104,0.0202,0.0276,0.0366,0.0402,0.0456,0.0509,0.0602,0.047,0.0506,0.0506,0.0506,0.0506,0.0506,0.0506,0.0002,-0.0008,0.0027,0.0021,0.011,0.0173,0.033,0.0394,0.0551,0.0535,0.059,0.0456,0.0509,0.0508,0.0508,0.0508,0.0507,0.0507,0.0507,-0.0032,-0.003,-0.0024,0.0003,0.0085,0.0201,0.0343,0.048,0.0593,0.0662,0.0591,0.0651,0.0648,0.0719,0.072,0.0721,0.0721,0.0721,0.0722,-0.0054,-0.005,-0.0048,-0.0001,0.0042,0.0172,0.0394,0.0489,0.0628,0.0624,0.0709,0.0675,0.0668,0.0662,0.073,0.0728,0.0727,0.0726,0.0726,-0.0094,-0.0074,-0.0084,-0.0059,0.0029,0.0116,0.0329,0.0478,0.0589,0.0609,0.0609,0.0612,0.0602,0.0598,0.0589,0.0637,0.0635,0.0633,0,-0.0101,-0.0101,-0.0101,-0.0089,-0.0033,0.0088,0.02,0.0323,0.046,0.0444,0.0582,0.0578,0.058,0.0561,0.0554,0.0537,0,0,0,-0.0106,-0.0108,-0.012,-0.0121,-0.0068,0.0064,0.0229,0.0266,0.0432,0.044,0.0578,0.0593,0.0573,0.0753,0.0748,0.074,0.0731,0,0]},{"header":{"parameterUnit":"m.s-1","parameterCategory":2,"la1":30.2992,"la2":30.254,"lo1":-89.0895,"lo2":-89.0443,"dy":0.0025,"dx":0.0025,"nx":19,"ny":19,"refTime":"2026-05-18T09:00:00:Z","depth":"4","parameterNumber":3,"parameterNumberName":"V-component_of_CURRENTS"},"data":[0,0,0,0.0253,0.0254,0.0315,0.0315,0.0398,0.0399,0,0,0,0,0,0,0,0,0,0,0,0.0232,0.0232,0.0253,0.0254,0.0315,0.0315,0.0398,0.0399,0,0,0,0,0,0,0,0,0,0,0,0.0232,0.0232,0.0233,0.0254,0.0315,0.0316,0.0398,0.035,0,0,0,0,0,0,0,0,0,0,0.029,0.0267,0.0232,0.0233,0.0255,0.0315,0.0316,0.0348,0.0353,0.0373,0,0.0386,0,0.0397,0.0405,0.0405,0,0,0,0.0252,0.0263,0.0284,0.0233,0.0255,0.0315,0.0287,0.0351,0.0357,0.038,0.0387,0.0391,0.0398,0.0405,0.0406,0.0545,0.0545,0,0,0.0248,0.0239,0.028,0.0288,0.0278,0.0285,0.0289,0.0354,0.0361,0.0388,0.0393,0.0399,0.0406,0.0407,0.0544,0.0545,0,0,0,0.024,0.0236,0.0255,0.0284,0.0296,0.0287,0.0291,0.0358,0.0366,0.0393,0.04,0.0406,0.0408,0.0543,0.0544,0.0574,0,0,0,0.0238,0.0232,0.0254,0.0248,0.0295,0.0326,0.0293,0.0361,0.0369,0.04,0.0407,0.0408,0.0542,0.0544,0.0571,0.0589,0,0,0,0.0228,0.0231,0.024,0.0248,0.0276,0.0326,0.0337,0.0363,0.0373,0.0405,0.0409,0.0541,0.0543,0.0568,0.0585,0.0599,0,0,0,0.0212,0.0264,0.024,0.0307,0.0275,0.0381,0.0337,0.0415,0.0454,0.0407,0.0542,0.0544,0.0568,0.0582,0.0597,0.0513,0,0,0,0.0276,0.0271,0.0315,0.0297,0.0394,0.0371,0.0463,0.0487,0.0486,0.0518,0.0521,0.0572,0.0585,0.0598,0.0635,0,0,0,0,0.0336,0.0363,0.0394,0.0436,0.049,0.0512,0.0543,0.0544,0.0573,0.0517,0.0606,0.0614,0.062,0.0567,0.0554,0.0554,0.0554,0.0553,0.0553,0.0396,0.0425,0.0493,0.0532,0.0588,0.0626,0.0641,0.0644,0.065,0.0668,0.0662,0.0729,0.0678,0.0688,0.0688,0.0688,0.0689,0.0689,0.0689,0.0474,0.0503,0.0534,0.0614,0.0638,0.071,0.0731,0.0723,0.074,0.0727,0.0731,0.0634,0.0693,0.0692,0.0691,0.0691,0.069,0.069,0.069,0.0484,0.05,0.0551,0.0633,0.0708,0.0761,0.0817,0.0816,0.0786,0.0787,0.0734,0.0755,0.0722,0.0799,0.0799,0.0799,0.0799,0.0799,0.0799,0.0463,0.0512,0.0569,0.0661,0.0733,0.0819,0.0885,0.0876,0.0843,0.0775,0.0812,0.0766,0.0762,0.073,0.0802,0.0802,0.0801,0.0801,0.0801,0.0473,0.0489,0.0577,0.0649,0.0792,0.0844,0.0934,0.0881,0.0855,0.0771,0.0752,0.0754,0.0732,0.0729,0.0694,0.0758,0.0757,0.0757,0,0.0458,0.0474,0.0592,0.0697,0.0784,0.0861,0.0847,0.0832,0.0756,0.074,0.0815,0.0796,0.0795,0.0773,0.0769,0.073,0,0,0,0.0453,0.0493,0.0572,0.0678,0.0788,0.0778,0.0834,0.0802,0.0785,0.0716,0.0736,0.0741,0.0783,0.081,0.078,0.0776,0.0721,0,0]}]]